NOAA NWS Hourly Roundups by Site

Regional Weather Roundup for Bismarck, ND

To Select Another Site Choose from List

Select Site:  

000
ASUS43 KBIS 171810
RWRBIS

NWR BROADCAST TEXT
NATIONAL WEATHER SERVICE BISMARCK ND
1200 PM CST THU JAN 17 2019

NOTE: "FAIR" INDICATES FEW OR NO CLOUDS BELOW 12,000 FEET WITH NO
SIGNIFICANT WEATHER AND/OR OBSTRUCTIONS TO VISIBILITY.


CITY           SKY/WX    TMP DP  RH WIND       PRES   REMARKS
WILLISTON      CLOUDY    14   7  73 N16       30.13F WCI  -2
MINOT          CLOUDY     6  -1  73 N13       30.17R WCI -10
MINOT AFB      CLOUDY     4  -2  75 N13       30.16F WCI -13
BISMARCK       LGT SNOW  19  16  88 N9        30.12S FOG     WCI   8
DICKINSON      FOG       20  18  92 NE8       30.02F VSB 1/2 WCI  10
GARRISON         N/A      9   6  88 NE8       30.13S WCI  -3
HETTINGER ARPT CLOUDY    23  21  92 NE9       30.03R WCI  13
JAMESTOWN      CLOUDY    14  11  87 N7        30.12F WCI   4
CARRINGTON     FLURRIES   9   7  92 N12       30.15F WCI  -6
HAZEN          LGT SNOW  14  14 100 NE7       30.14F WCI   4
LINTON           N/A     19  19 100 N7        30.11S WCI  10
MANDAN         LGT SNOW  16  18 100 NE12      30.09F WCI   3
OAKES          CLOUDY    10  10 100 E5        30.13F WCI   2
RUGBY          FAIR       5   1  85 NE6       30.17S WCI  -6
STANLEY        FLURRIES   7   5  92 N14       30.12S WCI -10
TIOGA          CLOUDY     9   9 100 NE10      30.12F FOG     WCI  -6
WATFORD CITY   CLOUDY    16  16 100 N10       30.10F FOG     WCI   3
$$

CITY           SKY/WX    TMP DP  RH WIND       PRES   REMARKS
GRAND FORKS    LGT SNOW   5  -1  76 N12       30.21F WCI -11
GRAND FORKS AF FLURRIES   7   0  73 N10       30.21S WCI  -7
DEVILS LAKE    FLURRIES   5   1  83 N14       30.17S WCI -12
FARGO          FLURRIES   7   2  80 N8        30.19F WCI  -6
CANDO          FAIR       5  -2  72 N9        30.20S WCI  -9
CAVALIER       MOCLDY     1  -4  78 N12       30.23F WCI -15
GRAFTON        CLOUDY     3   0  85 N12       30.25S HAZE    WCI -13
GWINNER          N/A     10   7  85 CALM      30.14F
LANGDON        CLOUDY     3  -4  72 N9        30.16S WCI -11
ROLLA          CLOUDY     3  -4  72 N12G17    30.15S WCI -13
WALHALLA         N/A      1  -4  78 N9        30.23F WCI -14
$$

CITY           SKY/WX    TMP DP  RH WIND       PRES   REMARKS
ABERDEEN       CLOUDY    14   8  77 S3        30.14F
MOBRIDGE       CLOUDY    23  18  81 S5        30.07S WCI  17
BUFFALO          N/A     26  23  88 NE5       29.97S
RAPID CITY     FOG       24  21  88 E3        30.00S VSB 1/4
GLASGOW        CLOUDY    17  12  80 NE15      30.08R WCI   2
SIDNEY         FLURRIES  17  14  88 NE13      30.11S WCI   4
WOLF POINT     MIX PCPN  16  12  84 NE17      30.12S WCI   0
GLENDIVE       CLOUDY    20  18  92 NE13      30.05S FOG     WCI   7
MILES CITY     CLOUDY    23  22  96 NE8       30.02R FOG     WCI  14
BAKER          CLOUDY    22  21  96 E7        30.01S WCI  13
$$

CITY           SKY/WX    TMP DP  RH WIND       PRES   REMARKS
BILLINGS       CLOUDY    20  18  92 NE13      29.94S WCI   7
GREAT FALLS    LGT SNOW  20  18  92 NE8       29.94S VSB 3/4 WCI  10
REGINA         PTSUNNY    1  -6  71 N6        30.23S WCI -10
ESTEVAN        CLOUDY     7   1  78 N9        30.17F WCI  -7
$$




 

View Past Reports for Bismarck, ND.

Products Courtesy of NOAA-NWS
NWS Information Parsing Script by Ken True at Saratoga Weather - Script by SE Lincoln Weather.